Weather History for Fort Eustis, VA

Change the Weather History Date:

Tuesday, December 4, 2012

  Actual Average Record
Temperature  
Mean Temperature 60 °F -  
Max Temperature 72 °F 54 °F 82 °F (1998)
Min Temperature 48 °F 38 °F 24 °F (2000)
Degree Days  
Heating Degree Days 5    
Growing Degree Days 10 (Base 50)    
Moisture  
Dew Point 52 °F    
Average Humidity 76    
Maximum Humidity 96    
Minimum Humidity 50    
Precipitation  
Precipitation 0.00 in - - ()
Sea Level Pressure  
Sea Level Pressure 30.22 in    
Wind  
Wind Speed 5 mph (South)    
Max Wind Speed 9 mph    
Max Gust Speed -    
Visibility 10 miles    
Events      
Averages and records for this station are not official NWS values.
T = Trace of Precipitation, MM = Missing Value Source: NWS Daily Summary

Daily Weather History Graph

Daily Weather History Graph

Search for Another Location

Airport:

Trip Planner

Search our weather history database for the weather conditions in past years. The results will help you decide how hot, cold, wet, or windy it might be!

Date:

Astronomy

Dec. 04, 2012 Rise Set
Actual Time 7:04 AM EST 4:49 PM EST
Civil Twilight 6:35 AM EST 5:17 PM EST
Nautical Twilight 6:03 AM EST 5:50 PM EST
Astronomical Twilight 5:31 AM EST 6:21 PM EST
Moon 10:29 PM EST (12/4) 11:02 AM EST (12/4)
Length of Visible Light 10h 42m
Length of Day
9h 44m
Waning Gibbous, 69% of the Moon is Illuminated
Dec 4
Waning Gibbous
Dec 6
Last Quarter
Dec 13
New
Dec 20
First Quarter
Dec 28
Full

Hourly Weather History & Observations

Time (EST) Temp. Dew Point Humidity Pressure Visibility Wind Dir Wind Speed Gust Speed Precip Events Conditions
12:55 AM 52.9 °F 50.4 °F 91% 30.26 in 10.0 mi SSE 4.6 mph - N/A   Clear
1:55 AM 51.8 °F 49.6 °F 92% 30.26 in 10.0 mi SE 4.6 mph - N/A   Partly Cloudy
2:55 AM 52.3 °F 50.2 °F 92% 30.26 in 10.0 mi SSE 3.5 mph - N/A   Clear
3:55 AM 52.3 °F 50.5 °F 94% 30.25 in 10.0 mi South 5.8 mph - N/A   Scattered Clouds
4:55 AM 51.3 °F 49.5 °F 94% 30.25 in 10.0 mi Calm Calm - N/A   Clear
5:55 AM 48.6 °F 47.1 °F 95% 30.26 in 8.0 mi Calm Calm - N/A   Clear
6:55 AM 50.5 °F 49.5 °F 96% 30.27 in 5.0 mi Calm Calm - N/A   Scattered Clouds
7:55 AM 52.7 °F 51.3 °F 95% 30.28 in 6.0 mi South 3.5 mph - N/A   Scattered Clouds
8:55 AM 56.8 °F 52.9 °F 87% 30.30 in 10.0 mi South 3.5 mph - N/A   Clear
9:55 AM 61.5 °F 54.1 °F 77% 30.30 in 10.0 mi South 4.6 mph - N/A   Clear
10:55 AM 65.8 °F 55.0 °F 68% 30.28 in 10.0 mi Variable 5.8 mph - N/A   Clear
11:55 AM 69.4 °F 55.4 °F 61% 30.24 in 10.0 mi SSW 8.1 mph - N/A   Clear
12:55 PM 71.4 °F 54.5 °F 55% 30.21 in 10.0 mi SSW 6.9 mph - N/A   Clear
1:55 PM 71.6 °F 53.1 °F 52% 30.18 in 10.0 mi SSW 8.1 mph - N/A   Partly Cloudy
2:55 PM 72.3 °F 52.7 °F 50% 30.17 in 10.0 mi SW 9.2 mph - N/A   Scattered Clouds
3:55 PM 70.3 °F 52.0 °F 52% 30.16 in 10.0 mi SW 6.9 mph - N/A   Clear
4:55 PM 67.3 °F 51.6 °F 57% 30.16 in 10.0 mi South 8.1 mph - N/A   Clear
5:55 PM 65.1 °F 51.6 °F 62% 30.17 in 10.0 mi SSW 4.6 mph - N/A   Clear
6:55 PM 64.0 °F 51.8 °F 64% 30.17 in 10.0 mi SSW 8.1 mph - N/A   Clear
7:55 PM 62.4 °F 52.2 °F 69% 30.17 in 10.0 mi SSW 6.9 mph - N/A   Clear
8:55 PM 61.0 °F 52.0 °F 72% 30.16 in 10.0 mi South 5.8 mph - N/A   Clear
9:55 PM 59.7 °F 52.2 °F 76% 30.15 in 10.0 mi South 4.6 mph - N/A   Clear
10:55 PM 58.6 °F 52.3 °F 80% 30.15 in 10.0 mi South 5.8 mph - N/A   Clear
11:55 PM 58.6 °F 53.2 °F 82% 30.13 in 10.0 mi South 4.6 mph - N/A   Clear